Starlink 4482

operational
NORAD ID: 53530 Int'l Des: 2022-101 Owner: SPXS Country: US Constellation: starlink
LEOCIRCULAR

Über Starlink 4482

Beschreibung wird geladen...

Live-Position

3D-Globus wird geladen...

Nächste Überflüge

Höhenverlauf

Altitude vs Time

uPlot chart will show altitude changes over time

Zweizeiliger Elementsatz

1 53530U 22101D 25304.28759857 .00000149 00000-0 27455-4 0 9998
2 53530 53.2184 295.2535 0001486 91.5923 268.5239 15.08834932176620
Epoch: 31. Okt. 2025 • Age: 9 hours

Aktueller Status

Höhe 558.6 km
Geschwindigkeit 7.58 km/s
Subsatellitenpunkt -51.48°S, 97.35°W
Startdatum 19. Aug. 2022
Alter 3.1 years
Typ internet

Technische Details

Klassifizierung Payload
Masse 300.00 kg
Trockenmasse 290.00 kg
Gesamtmasse 300.00 kg
Länge 0.20 m
Durchmesser 2.80 m
Spannweite 9.00 m
Form Box + pan
Hersteller SPXS
Bus-Typ Starlink
Phasenstatus In Orbit
Besitzer/Staat SPXS/US

Große Konstellationen

Loading constellations...